Time,TemperatureF,DewpointF,PressureIn,WindDirection,WindDirectionDegrees,WindSpeedMPH,WindSpeedGustMPH,Humidity,HourlyPrecipIn,Conditions,Clouds,dailyrainin,SoftwareType,DateUTC
2013-01-31 00:00:00,52.4,51.9,29.48,SW,232,13.0,21.0,98,0.00,,,0.15,Wunderground v.1.15,2013-01-31 05:00:00,
2013-01-31 00:05:00,52.5,52.0,29.48,South,180,15.0,21.0,98,0.00,,,0.00,Wunderground v.1.15,2013-01-31 05:05:00,
2013-01-31 00:15:00,52.4,51.9,29.47,SW,227,13.0,21.0,98,0.00,,,0.00,Wunderground v.1.15,2013-01-31 05:15:00,
2013-01-31 00:20:00,52.5,52.0,29.47,SSW,210,12.0,21.0,98,0.00,,,0.00,Wunderground v.1.15,2013-01-31 05:20:00,
2013-01-31 00:25:00,52.5,52.0,29.47,SSW,202,13.0,21.0,98,0.00,,,0.00,Wunderground v.1.15,2013-01-31 05:25:00,
2013-01-31 00:30:00,52.4,51.9,29.46,WSW,238,13.0,21.0,98,0.00,,,0.00,Wunderground v.1.15,2013-01-31 05:30:00,
2013-01-31 00:40:00,52.4,51.9,29.46,SSW,202,13.0,21.0,98,0.00,,,0.00,Wunderground v.1.15,2013-01-31 05:40:00,
2013-01-31 00:45:00,52.5,52.0,29.45,SSW,211,13.0,21.0,98,0.00,,,0.00,Wunderground v.1.15,2013-01-31 05:45:00,
2013-01-31 00:50:00,52.3,51.8,29.45,South,188,13.0,13.0,98,0.00,,,0.00,Wunderground v.1.15,2013-01-31 05:50:00,
2013-01-31 00:55:00,52.4,51.9,29.45,SSW,192,11.0,18.0,98,0.00,,,0.00,Wunderground v.1.15,2013-01-31 05:55:00,
2013-01-31 01:00:00,52.6,52.3,29.44,SSW,192,14.0,14.0,99,0.00,,,0.00,Wunderground v.1.15,2013-01-31 06:00:00,
2013-01-31 01:05:00,53.0,52.7,29.45,SW,221,16.0,18.0,99,0.00,,,0.00,Wunderground v.1.15,2013-01-31 06:05:00,
2013-01-31 01:15:00,55.0,54.7,29.44,SSW,200,17.0,21.0,99,0.00,,,0.00,Wunderground v.1.15,2013-01-31 06:15:00,
2013-01-31 01:20:00,55.0,54.7,29.44,South,180,18.0,18.0,99,0.00,,,0.00,Wunderground v.1.15,2013-01-31 06:20:00,
2013-01-31 01:25:00,54.5,53.9,29.44,SSE,163,17.0,21.0,98,0.00,,,0.00,Wunderground v.1.15,2013-01-31 06:25:00,
2013-01-31 01:30:00,54.1,53.5,29.43,WSW,251,17.0,25.0,98,0.00,,,0.00,Wunderground v.1.15,2013-01-31 06:30:00,
2013-01-31 01:35:00,54.0,53.4,29.43,SSW,205,17.0,25.0,98,0.00,,,0.00,Wunderground v.1.15,2013-01-31 06:35:00,
2013-01-31 01:45:00,53.9,53.1,29.42,SSW,194,15.0,21.0,97,0.00,,,0.00,Wunderground v.1.15,2013-01-31 06:45:00,
2013-01-31 01:50:00,53.6,52.8,29.42,WSW,242,13.0,13.0,97,0.00,,,0.00,Wunderground v.1.15,2013-01-31 06:50:00,
2013-01-31 01:55:00,53.2,52.4,29.41,SW,226,11.0,21.0,97,0.00,,,0.00,Wunderground v.1.15,2013-01-31 06:55:00,
2013-01-31 02:00:00,53.0,52.2,29.41,SSW,205,11.0,11.0,97,0.00,,,0.00,Wunderground v.1.15,2013-01-31 07:00:00,
2013-01-31 02:05:00,52.5,51.7,29.41,SSW,204,11.0,18.0,97,0.00,,,0.00,Wunderground v.1.15,2013-01-31 07:05:00,
2013-01-31 02:10:00,52.5,51.7,29.40,SW,219,12.0,21.0,97,0.00,,,0.00,Wunderground v.1.15,2013-01-31 07:10:00,
2013-01-31 02:20:00,51.6,50.8,29.38,South,178,11.0,11.0,97,0.00,,,0.00,Wunderground v.1.15,2013-01-31 07:20:00,
2013-01-31 02:25:00,51.9,51.4,29.38,South,177,12.0,18.0,98,0.00,,,0.00,Wunderground v.1.15,2013-01-31 07:25:00,
2013-01-31 02:30:00,51.9,51.4,29.37,SW,214,13.0,21.0,98,0.00,,,0.00,Wunderground v.1.15,2013-01-31 07:30:00,
2013-01-31 02:35:00,52.0,51.5,29.37,SSW,198,14.0,21.0,98,0.00,,,0.00,Wunderground v.1.15,2013-01-31 07:35:00,
2013-01-31 02:40:00,51.8,51.3,29.37,SSW,200,14.0,14.0,98,0.00,,,0.00,Wunderground v.1.15,2013-01-31 07:40:00,
2013-01-31 02:50:00,51.8,51.3,29.36,South,189,13.0,13.0,98,0.00,,,0.00,Wunderground v.1.15,2013-01-31 07:50:00,
2013-01-31 02:55:00,51.7,51.2,29.35,SSW,202,14.0,14.0,98,0.00,,,0.00,Wunderground v.1.15,2013-01-31 07:55:00,
2013-01-31 03:00:00,52.0,51.5,29.34,SSE,161,13.0,13.0,98,0.00,,,0.00,Wunderground v.1.15,2013-01-31 08:00:00,
2013-01-31 03:05:00,52.1,51.6,29.33,SW,218,12.0,21.0,98,0.00,,,0.00,Wunderground v.1.15,2013-01-31 08:05:00,
2013-01-31 03:10:00,52.2,51.7,29.32,SSW,200,14.0,21.0,98,0.00,,,0.00,Wunderground v.1.15,2013-01-31 08:10:00,
2013-01-31 03:15:00,52.3,51.8,29.33,SSW,195,16.0,21.0,98,0.00,,,0.00,Wunderground v.1.15,2013-01-31 08:15:00,
2013-01-31 03:25:00,52.2,51.7,29.31,South,173,17.0,17.0,98,0.00,,,0.00,Wunderground v.1.15,2013-01-31 08:25:00,
2013-01-31 03:30:00,52.1,51.3,29.31,South,191,16.0,24.0,97,0.00,,,0.00,Wunderground v.1.15,2013-01-31 08:30:00,
2013-01-31 03:35:00,52.0,51.2,29.30,South,187,15.0,24.0,97,0.00,,,0.00,Wunderground v.1.15,2013-01-31 08:35:00,
2013-01-31 03:40:00,52.1,51.3,29.29,SSW,194,16.0,23.0,97,0.00,,,0.00,Wunderground v.1.15,2013-01-31 08:40:00,
2013-01-31 03:45:00,52.0,51.2,29.29,South,190,16.0,23.0,97,0.00,,,0.00,Wunderground v.1.15,2013-01-31 08:45:00,
2013-01-31 03:55:00,51.9,51.1,29.28,South,184,16.0,21.0,97,0.00,,,0.00,Wunderground v.1.15,2013-01-31 08:55:00,
2013-01-31 04:00:00,52.0,51.2,29.28,SSW,209,17.0,17.0,97,0.00,,,0.00,Wunderground v.1.15,2013-01-31 09:00:00,
2013-01-31 04:05:00,52.0,51.2,29.27,SSW,205,17.0,21.0,97,0.00,,,0.00,Wunderground v.1.15,2013-01-31 09:05:00,
2013-01-31 04:10:00,51.9,51.1,29.27,SSW,207,17.0,17.0,97,0.00,,,0.00,Wunderground v.1.15,2013-01-31 09:10:00,
2013-01-31 04:15:00,52.1,51.3,29.26,South,184,17.0,21.0,97,0.00,,,0.00,Wunderground v.1.15,2013-01-31 09:15:00,
2013-01-31 04:20:00,52.1,51.3,29.26,SSE,160,18.0,18.0,97,0.00,,,0.00,Wunderground v.1.15,2013-01-31 09:20:00,
2013-01-31 04:30:00,52.3,51.8,29.23,South,189,16.0,16.0,98,0.00,,,0.00,Wunderground v.1.15,2013-01-31 09:30:00,
2013-01-31 04:35:00,52.3,51.8,29.23,South,182,19.0,19.0,98,0.00,,,0.00,Wunderground v.1.15,2013-01-31 09:35:00,
2013-01-31 04:40:00,52.5,52.0,29.23,WSW,240,18.0,21.0,98,0.00,,,0.00,Wunderground v.1.15,2013-01-31 09:40:00,
2013-01-31 04:45:00,52.6,51.8,29.22,SSW,203,19.0,21.0,97,0.00,,,0.00,Wunderground v.1.15,2013-01-31 09:45:00,
2013-01-31 04:50:00,52.6,51.8,29.21,South,188,18.0,18.0,97,0.00,,,0.00,Wunderground v.1.15,2013-01-31 09:50:00,
2013-01-31 05:00:00,52.6,51.8,29.20,SSE,168,16.0,16.0,97,0.00,,,0.00,Wunderground v.1.15,2013-01-31 10:00:00,
2013-01-31 05:05:00,52.8,52.0,29.19,South,178,16.0,20.0,97,0.00,,,0.00,Wunderground v.1.15,2013-01-31 10:05:00,
2013-01-31 05:10:00,52.8,52.0,29.18,SSW,196,18.0,18.0,97,0.00,,,0.00,Wunderground v.1.15,2013-01-31 10:10:00,
2013-01-31 05:15:00,52.8,52.0,29.18,SSW,201,19.0,19.0,97,0.00,,,0.00,Wunderground v.1.15,2013-01-31 10:15:00,
2013-01-31 05:20:00,52.7,51.9,29.18,SW,219,17.0,17.0,97,0.00,,,0.00,Wunderground v.1.15,2013-01-31 10:20:00,
2013-01-31 05:25:00,52.7,51.9,29.18,SSW,200,17.0,18.0,97,0.00,,,0.00,Wunderground v.1.15,2013-01-31 10:25:00,
2013-01-31 05:35:00,52.5,51.7,29.17,SW,215,17.0,21.0,97,0.00,,,0.00,Wunderground v.1.15,2013-01-31 10:35:00,
2013-01-31 05:40:00,52.4,51.6,29.17,SSE,155,15.0,15.0,97,0.00,,,0.00,Wunderground v.1.15,2013-01-31 10:40:00,
2013-01-31 05:45:00,52.3,51.8,29.16,SSW,212,14.0,21.0,98,0.00,,,0.00,Wunderground v.1.15,2013-01-31 10:45:00,
2013-01-31 05:50:00,52.4,51.9,29.16,SSW,204,17.0,21.0,98,0.00,,,0.00,Wunderground v.1.15,2013-01-31 10:50:00,
2013-01-31 05:55:00,52.4,51.9,29.16,SSW,201,18.0,21.0,98,0.00,,,0.00,Wunderground v.1.15,2013-01-31 10:55:00,
2013-01-31 06:05:00,52.3,51.8,29.15,South,171,15.0,21.0,98,0.00,,,0.00,Wunderground v.1.15,2013-01-31 11:05:00,
2013-01-31 06:10:00,52.3,51.8,29.14,SSE,166,16.0,16.0,98,0.00,,,0.00,Wunderground v.1.15,2013-01-31 11:10:00,
2013-01-31 06:15:00,52.5,52.0,29.13,SSW,202,15.0,21.0,98,0.00,,,0.00,Wunderground v.1.15,2013-01-31 11:15:00,
2013-01-31 06:20:00,52.5,52.0,29.13,SSW,203,15.0,25.0,98,0.00,,,0.00,Wunderground v.1.15,2013-01-31 11:20:00,
2013-01-31 06:25:00,52.7,51.9,29.12,South,186,17.0,25.0,97,0.00,,,0.00,Wunderground v.1.15,2013-01-31 11:25:00,
2013-01-31 06:30:00,53.0,52.5,29.11,SSW,194,18.0,24.0,98,0.00,,,0.00,Wunderground v.1.15,2013-01-31 11:30:00,
2013-01-31 06:40:00,53.1,52.3,29.10,SSW,203,18.0,18.0,97,0.00,,,0.00,Wunderground v.1.15,2013-01-31 11:40:00,
2013-01-31 06:45:00,53.2,52.4,29.10,South,176,18.0,21.0,97,0.00,,,0.01,Wunderground v.1.15,2013-01-31 11:45:00,
2013-01-31 06:50:00,53.3,52.5,29.08,SSW,211,19.0,21.0,97,0.00,,,0.01,Wunderground v.1.15,2013-01-31 11:50:00,
2013-01-31 06:55:00,53.1,52.3,29.09,South,187,19.0,21.0,97,0.07,,,0.02,Wunderground v.1.15,2013-01-31 11:55:00,
2013-01-31 07:00:00,53.0,52.2,29.08,SSW,202,18.0,24.0,97,0.06,,,0.02,Wunderground v.1.15,2013-01-31 12:00:00,
2013-01-31 07:10:00,53.2,52.4,29.06,South,183,18.0,21.0,97,0.05,,,0.03,Wunderground v.1.15,2013-01-31 12:10:00,
2013-01-31 07:15:00,53.4,52.6,29.04,SSW,213,19.0,21.0,97,0.05,,,0.03,Wunderground v.1.15,2013-01-31 12:15:00,
2013-01-31 07:20:00,53.5,52.7,29.03,ESE,115,18.0,18.0,97,0.00,,,0.03,Wunderground v.1.15,2013-01-31 12:20:00,
2013-01-31 07:25:00,53.6,52.8,29.03,SSW,207,17.0,21.0,97,0.00,,,0.04,Wunderground v.1.15,2013-01-31 12:25:00,
2013-01-31 07:30:00,53.8,53.0,29.03,South,172,18.0,30.0,97,0.00,,,0.04,Wunderground v.1.15,2013-01-31 12:30:00,
2013-01-31 07:35:00,53.9,53.1,29.02,South,175,21.0,30.0,97,0.00,,,0.04,Wunderground v.1.15,2013-01-31 12:35:00,
2013-01-31 07:45:00,53.7,52.9,29.01,SSW,198,20.0,31.0,97,0.00,,,0.04,Wunderground v.1.15,2013-01-31 12:45:00,
2013-01-31 07:50:00,53.9,53.1,29.01,WSW,240,21.0,21.0,97,0.00,,,0.04,Wunderground v.1.15,2013-01-31 12:50:00,
2013-01-31 08:55:00,54.6,53.5,29.00,SSW,198,21.0,24.0,96,0.00,,,0.05,Wunderground v.1.15,2013-01-31 13:55:00,
2013-01-31 09:00:00,54.7,53.6,28.99,SSE,161,20.0,20.0,96,0.00,,,0.05,Wunderground v.1.15,2013-01-31 14:00:00,
2013-01-31 09:10:00,54.2,53.1,28.97,SW,224,15.0,15.0,96,0.00,,,0.05,Wunderground v.1.15,2013-01-31 14:10:00,
2013-01-31 09:20:00,53.3,52.2,28.96,SW,229,16.0,16.0,96,0.00,,,0.05,Wunderground v.1.15,2013-01-31 14:20:00,
2013-01-31 09:25:00,52.5,51.4,28.96,SSW,193,16.0,17.0,96,0.00,,,0.05,Wunderground v.1.15,2013-01-31 14:25:00,
2013-01-31 09:30:00,52.1,51.3,28.95,SSW,198,15.0,23.0,97,0.00,,,0.05,Wunderground v.1.15,2013-01-31 14:30:00,
2013-01-31 09:40:00,52.1,51.6,28.94,South,178,16.0,16.0,98,0.00,,,0.06,Wunderground v.1.15,2013-01-31 14:40:00,
2013-01-31 09:45:00,51.9,51.4,28.93,SSW,204,15.0,16.0,98,0.00,,,0.06,Wunderground v.1.15,2013-01-31 14:45:00,
2013-01-31 09:55:00,51.9,51.4,28.93,South,190,15.0,17.0,98,0.00,,,0.06,Wunderground v.1.15,2013-01-31 14:55:00,
2013-01-31 10:00:00,51.8,51.3,28.92,SSW,209,15.0,17.0,98,0.00,,,0.06,Wunderground v.1.15,2013-01-31 15:00:00,
2013-01-31 10:05:00,51.7,51.2,28.93,SSW,192,16.0,19.0,98,0.00,,,0.06,Wunderground v.1.15,2013-01-31 15:05:00,
2013-01-31 10:10:00,51.9,51.4,28.92,South,171,16.0,24.0,98,0.00,,,0.06,Wunderground v.1.15,2013-01-31 15:10:00,
2013-01-31 10:15:00,51.6,51.1,28.91,SSW,197,17.0,24.0,98,0.00,,,0.06,Wunderground v.1.15,2013-01-31 15:15:00,
2013-01-31 10:25:00,51.9,51.4,28.90,South,171,17.0,18.0,98,0.00,,,0.06,Wunderground v.1.15,2013-01-31 15:25:00,
2013-01-31 10:30:00,51.7,51.2,28.90,South,187,16.0,17.0,98,0.00,,,0.06,Wunderground v.1.15,2013-01-31 15:30:00,
2013-01-31 10:35:00,51.5,51.0,28.90,SSE,157,17.0,18.0,98,0.00,,,0.06,Wunderground v.1.15,2013-01-31 15:35:00,
2013-01-31 10:40:00,51.9,51.4,28.89,SSW,200,17.0,17.0,98,0.00,,,0.06,Wunderground v.1.15,2013-01-31 15:40:00,
2013-01-31 10:45:00,52.3,51.8,28.89,South,188,17.0,21.0,98,0.00,,,0.06,Wunderground v.1.15,2013-01-31 15:45:00,
2013-01-31 10:50:00,52.9,52.4,28.88,SSW,206,18.0,18.0,98,0.00,,,0.06,Wunderground v.1.15,2013-01-31 15:50:00,
2013-01-31 11:00:00,53.2,52.4,28.88,South,189,20.0,32.0,97,0.00,,,0.06,Wunderground v.1.15,2013-01-31 16:00:00,
2013-01-31 11:10:00,52.1,50.7,28.89,WSW,239,22.0,22.0,95,0.00,,,0.06,Wunderground v.1.15,2013-01-31 16:10:00,
2013-01-31 11:15:00,52.2,49.4,28.91,West,272,19.0,30.0,90,0.00,,,0.06,Wunderground v.1.15,2013-01-31 16:15:00,
2013-01-31 11:20:00,51.4,46.1,28.92,SW,229,19.0,30.0,82,0.00,,,0.06,Wunderground v.1.15,2013-01-31 16:20:00,
2013-01-31 11:25:00,50.5,44.6,28.93,SSW,211,19.0,30.0,80,0.00,,,0.06,Wunderground v.1.15,2013-01-31 16:25:00,
2013-01-31 11:35:00,49.6,43.4,28.94,West,271,18.0,19.0,79,0.00,,,0.06,Wunderground v.1.15,2013-01-31 16:35:00,
2013-01-31 11:40:00,49.1,43.5,28.94,SW,226,16.0,21.0,81,0.00,,,0.06,Wunderground v.1.15,2013-01-31 16:40:00,
2013-01-31 11:45:00,48.4,43.5,28.93,WSW,246,15.0,21.0,83,0.00,,,0.06,Wunderground v.1.15,2013-01-31 16:45:00,
2013-01-31 11:50:00,47.8,42.9,28.92,WSW,249,13.0,15.0,83,0.00,,,0.06,Wunderground v.1.15,2013-01-31 16:50:00,
2013-01-31 11:55:00,47.5,42.9,28.93,West,263,12.0,15.0,84,0.00,,,0.06,Wunderground v.1.15,2013-01-31 16:55:00,
2013-01-31 12:00:00,47.6,42.7,28.93,WSW,246,12.0,12.0,83,0.00,,,0.06,Wunderground v.1.15,2013-01-31 17:00:00,
2013-01-31 12:10:00,48.3,43.1,28.97,WSW,241,13.0,14.0,82,0.00,,,0.06,Wunderground v.1.15,2013-01-31 17:10:00,
2013-01-31 12:15:00,48.8,42.6,28.97,WSW,250,16.0,24.0,79,0.00,,,0.06,Wunderground v.1.15,2013-01-31 17:15:00,
2013-01-31 12:20:00,48.7,42.1,28.98,WSW,251,16.0,16.0,78,0.00,,,0.06,Wunderground v.1.15,2013-01-31 17:20:00,
2013-01-31 12:25:00,48.7,43.5,28.98,SW,236,14.0,16.0,82,0.00,,,0.06,Wunderground v.1.15,2013-01-31 17:25:00,
2013-01-31 12:30:00,48.9,43.6,28.99,West,274,14.0,15.0,82,0.00,,,0.06,Wunderground v.1.15,2013-01-31 17:30:00,
2013-01-31 12:35:00,48.5,42.3,29.01,SW,221,17.0,19.0,79,0.00,,,0.06,Wunderground v.1.15,2013-01-31 17:35:00,
2013-01-31 12:45:00,49.0,41.4,29.01,SW,215,19.0,23.0,75,0.00,,,0.06,Wunderground v.1.15,2013-01-31 17:45:00,
2013-01-31 12:50:00,49.1,40.1,29.02,WSW,256,19.0,23.0,71,0.00,,,0.06,Wunderground v.1.15,2013-01-31 17:50:00,
2013-01-31 12:55:00,49.1,38.6,29.02,West,268,19.0,23.0,67,0.00,,,0.06,Wunderground v.1.15,2013-01-31 17:55:00,
2013-01-31 13:00:00,49.4,38.9,29.02,West,273,18.0,27.0,67,0.00,,,0.06,Wunderground v.1.15,2013-01-31 18:00:00,
2013-01-31 13:10:00,48.7,37.5,29.03,SSW,205,18.0,18.0,65,0.00,,,0.06,Wunderground v.1.15,2013-01-31 18:10:00,
2013-01-31 13:20:00,48.3,37.5,29.04,West,278,16.0,16.0,66,0.00,,,0.06,Wunderground v.1.15,2013-01-31 18:20:00,
2013-01-31 13:25:00,47.8,37.0,29.05,SW,217,15.0,21.0,66,0.00,,,0.06,Wunderground v.1.15,2013-01-31 18:25:00,
2013-01-31 13:30:00,47.3,36.9,29.05,NNW,337,15.0,15.0,67,0.00,,,0.06,Wunderground v.1.15,2013-01-31 18:30:00,
2013-01-31 13:35:00,47.5,37.5,29.04,WSW,257,16.0,16.0,68,0.00,,,0.06,Wunderground v.1.15,2013-01-31 18:35:00,
2013-01-31 13:40:00,47.3,37.3,29.05,SSW,196,17.0,24.0,68,0.00,,,0.06,Wunderground v.1.15,2013-01-31 18:40:00,
2013-01-31 13:50:00,46.5,36.1,29.06,WSW,246,14.0,18.0,67,0.00,,,0.06,Wunderground v.1.15,2013-01-31 18:50:00,
2013-01-31 13:55:00,46.5,36.5,29.07,WSW,238,15.0,28.0,68,0.00,,,0.06,Wunderground v.1.15,2013-01-31 18:55:00,
2013-01-31 14:00:00,46.5,35.7,29.07,WSW,253,18.0,24.0,66,0.00,,,0.06,Wunderground v.1.15,2013-01-31 19:00:00,
2013-01-31 14:10:00,46.8,34.5,29.08,SSW,202,16.0,16.0,62,0.00,,,0.06,Wunderground v.1.15,2013-01-31 19:10:00,
2013-01-31 14:15:00,46.7,33.5,29.08,WNW,290,13.0,20.0,60,0.00,,,0.06,Wunderground v.1.15,2013-01-31 19:15:00,
2013-01-31 14:20:00,46.5,33.4,29.09,WNW,283,15.0,15.0,60,0.00,,,0.06,Wunderground v.1.15,2013-01-31 19:20:00,
2013-01-31 14:25:00,46.2,33.1,29.09,WSW,238,16.0,16.0,60,0.00,,,0.06,Wunderground v.1.15,2013-01-31 19:25:00,
2013-01-31 14:30:00,46.2,33.1,29.09,SSW,213,16.0,26.0,60,0.00,,,0.06,Wunderground v.1.15,2013-01-31 19:30:00,
2013-01-31 14:40:00,45.7,32.6,29.10,West,271,18.0,24.0,60,0.00,,,0.06,Wunderground v.1.15,2013-01-31 19:40:00,
2013-01-31 14:45:00,45.8,33.1,29.10,WNW,285,17.0,17.0,61,0.00,,,0.06,Wunderground v.1.15,2013-01-31 19:45:00,
2013-01-31 14:55:00,46.0,32.0,29.11,SSW,203,11.0,11.0,58,0.00,,,0.06,Wunderground v.1.15,2013-01-31 19:55:00,
2013-01-31 15:00:00,45.5,31.1,29.12,WSW,242,14.0,20.0,57,0.00,,,0.06,Wunderground v.1.15,2013-01-31 20:00:00,
2013-01-31 15:05:00,45.2,30.9,29.12,SW,232,16.0,20.0,57,0.00,,,0.06,Wunderground v.1.15,2013-01-31 20:05:00,
2013-01-31 15:10:00,45.3,30.5,29.13,SW,235,16.0,19.0,56,0.00,,,0.06,Wunderground v.1.15,2013-01-31 20:10:00,
2013-01-31 15:15:00,45.3,30.1,29.13,SW,224,15.0,19.0,55,0.00,,,0.06,Wunderground v.1.15,2013-01-31 20:15:00,
2013-01-31 15:20:00,45.2,29.5,29.14,SW,230,14.0,14.0,54,0.00,,,0.06,Wunderground v.1.15,2013-01-31 20:20:00,
2013-01-31 15:30:00,44.9,28.8,29.15,SW,221,14.0,14.0,53,0.00,,,0.06,Wunderground v.1.15,2013-01-31 20:30:00,
2013-01-31 15:35:00,44.3,27.8,29.16,SW,229,16.0,16.0,52,0.00,,,0.06,Wunderground v.1.15,2013-01-31 20:35:00,
2013-01-31 15:40:00,43.9,26.9,29.16,WSW,237,18.0,18.0,51,0.00,,,0.06,Wunderground v.1.15,2013-01-31 20:40:00,
2013-01-31 15:45:00,43.7,27.2,29.17,WSW,237,18.0,34.0,52,0.00,,,0.06,Wunderground v.1.15,2013-01-31 20:45:00,
2013-01-31 15:50:00,43.5,26.6,29.17,WSW,240,17.0,17.0,51,0.00,,,0.06,Wunderground v.1.15,2013-01-31 20:50:00,
2013-01-31 15:55:00,43.3,26.8,29.17,WSW,238,15.0,21.0,52,0.00,,,0.06,Wunderground v.1.15,2013-01-31 20:55:00,
2013-01-31 16:00:00,42.9,26.0,29.18,WSW,240,17.0,17.0,51,0.00,,,0.06,Wunderground v.1.15,2013-01-31 21:00:00,
2013-01-31 16:05:00,42.6,26.2,29.18,WSW,244,17.0,34.0,52,0.00,,,0.06,Wunderground v.1.15,2013-01-31 21:05:00,
2013-01-31 16:10:00,42.2,25.3,29.19,West,274,16.0,34.0,51,0.00,,,0.06,Wunderground v.1.15,2013-01-31 21:10:00,
2013-01-31 16:15:00,42.0,25.6,29.19,SSW,198,17.0,34.0,52,0.00,,,0.06,Wunderground v.1.15,2013-01-31 21:15:00,
2013-01-31 16:20:00,41.6,24.8,29.21,WSW,238,16.0,16.0,51,0.00,,,0.06,Wunderground v.1.15,2013-01-31 21:20:00,
2013-01-31 16:30:00,40.9,24.1,29.21,WSW,250,16.0,34.0,51,0.00,,,0.06,Wunderground v.1.15,2013-01-31 21:30:00,
2013-01-31 16:35:00,40.7,23.5,29.22,WSW,254,16.0,34.0,50,0.00,,,0.06,Wunderground v.1.15,2013-01-31 21:35:00,
2013-01-31 16:40:00,40.5,23.3,29.22,South,184,18.0,18.0,50,0.00,,,0.06,Wunderground v.1.15,2013-01-31 21:40:00,
2013-01-31 16:45:00,40.3,23.1,29.23,WSW,246,17.0,20.0,50,0.00,,,0.06,Wunderground v.1.15,2013-01-31 21:45:00,
2013-01-31 16:50:00,40.1,22.9,29.23,SW,218,17.0,17.0,50,0.00,,,0.06,Wunderground v.1.15,2013-01-31 21:50:00,
2013-01-31 16:55:00,39.8,22.7,29.24,WSW,238,18.0,24.0,50,0.00,,,0.06,Wunderground v.1.15,2013-01-31 21:55:00,
2013-01-31 17:05:00,39.3,22.7,29.25,South,182,17.0,34.0,51,0.00,,,0.06,Wunderground v.1.15,2013-01-31 22:05:00,
2013-01-31 17:10:00,39.2,22.6,29.25,SW,223,16.0,34.0,51,0.00,,,0.06,Wunderground v.1.15,2013-01-31 22:10:00,
2013-01-31 17:15:00,39.1,22.0,29.26,SSW,195,16.0,34.0,50,0.00,,,0.06,Wunderground v.1.15,2013-01-31 22:15:00,
2013-01-31 17:20:00,39.0,21.4,29.26,West,269,16.0,16.0,49,0.00,,,0.06,Wunderground v.1.15,2013-01-31 22:20:00,
2013-01-31 17:25:00,38.8,21.7,29.27,West,264,15.0,34.0,50,0.00,,,0.06,Wunderground v.1.15,2013-01-31 22:25:00,
2013-01-31 17:35:00,38.5,21.5,29.28,WSW,251,14.0,34.0,50,0.00,,,0.06,Wunderground v.1.15,2013-01-31 22:35:00,
2013-01-31 17:40:00,38.4,21.8,29.28,SW,236,13.0,13.0,51,0.00,,,0.06,Wunderground v.1.15,2013-01-31 22:40:00,
2013-01-31 17:45:00,38.2,20.7,29.29,WSW,246,14.0,14.0,49,0.00,,,0.06,Wunderground v.1.15,2013-01-31 22:45:00,
2013-01-31 17:50:00,38.1,20.6,29.29,SW,234,15.0,34.0,49,0.00,,,0.06,Wunderground v.1.15,2013-01-31 22:50:00,
2013-01-31 17:55:00,38.1,20.6,29.30,West,264,16.0,34.0,49,0.00,,,0.06,Wunderground v.1.15,2013-01-31 22:55:00,
2013-01-31 18:00:00,38.0,20.5,29.30,WSW,238,17.0,17.0,49,0.00,,,0.06,Wunderground v.1.15,2013-01-31 23:00:00,
2013-01-31 18:10:00,37.8,21.3,29.31,WSW,240,16.0,16.0,51,0.00,,,0.06,Wunderground v.1.15,2013-01-31 23:10:00,
2013-01-31 18:15:00,37.6,21.1,29.31,WSW,244,15.0,34.0,51,0.00,,,0.06,Wunderground v.1.15,2013-01-31 23:15:00,
2013-01-31 18:20:00,37.4,20.9,29.31,West,279,14.0,14.0,51,0.00,,,0.06,Wunderground v.1.15,2013-01-31 23:20:00,
2013-01-31 18:25:00,37.4,20.9,29.31,WSW,246,13.0,34.0,51,0.00,,,0.06,Wunderground v.1.15,2013-01-31 23:25:00,
2013-01-31 18:30:00,37.2,20.2,29.32,SW,214,13.0,13.0,50,0.00,,,0.06,Wunderground v.1.15,2013-01-31 23:30:00,
2013-01-31 18:35:00,37.1,19.2,29.32,WSW,244,14.0,14.0,48,0.00,,,0.06,Wunderground v.1.15,2013-01-31 23:35:00,
2013-01-31 18:40:00,37.1,18.2,29.32,WSW,257,14.0,14.0,46,0.00,,,0.06,Wunderground v.1.15,2013-01-31 23:40:00,
2013-01-31 18:45:00,37.0,18.1,29.33,WSW,249,12.0,15.0,46,0.00,,,0.06,Wunderground v.1.15,2013-01-31 23:45:00,
2013-01-31 18:50:00,36.9,18.0,29.33,WSW,256,12.0,34.0,46,0.00,,,0.06,Wunderground v.1.15,2013-01-31 23:50:00,
2013-01-31 18:55:00,36.8,17.9,29.33,SSW,209,14.0,34.0,46,0.00,,,0.06,Wunderground v.1.15,2013-01-31 23:55:00,
2013-01-31 19:00:00,36.8,18.4,29.33,WSW,254,14.0,14.0,47,0.00,,,0.06,Wunderground v.1.15,2013-02-01 00:00:00,
2013-01-31 19:10:00,36.5,19.1,29.34,SSW,207,11.0,34.0,49,0.00,,,0.06,Wunderground v.1.15,2013-02-01 00:10:00,
2013-01-31 19:15:00,36.4,19.0,29.33,WSW,237,13.0,34.0,49,0.00,,,0.06,Wunderground v.1.15,2013-02-01 00:15:00,
2013-01-31 19:20:00,36.4,19.0,29.34,SW,225,14.0,34.0,49,0.00,,,0.06,Wunderground v.1.15,2013-02-01 00:20:00,
2013-01-31 19:25:00,36.3,18.9,29.34,SW,233,15.0,34.0,49,0.00,,,0.06,Wunderground v.1.15,2013-02-01 00:25:00,
2013-01-31 19:30:00,36.2,19.3,29.35,SSE,153,14.0,14.0,50,0.00,,,0.06,Wunderground v.1.15,2013-02-01 00:30:00,
2013-01-31 19:35:00,36.2,18.9,29.35,WSW,248,14.0,18.0,49,0.00,,,0.06,Wunderground v.1.15,2013-02-01 00:35:00,
2013-01-31 19:45:00,36.1,18.8,29.35,WSW,244,16.0,34.0,49,0.00,,,0.06,Wunderground v.1.15,2013-02-01 00:45:00,
2013-01-31 19:50:00,35.9,19.0,29.35,SW,235,14.0,14.0,50,0.00,,,0.06,Wunderground v.1.15,2013-02-01 00:50:00,
2013-01-31 19:55:00,35.9,19.0,29.36,SW,225,11.0,34.0,50,0.00,,,0.06,Wunderground v.1.15,2013-02-01 00:55:00,
2013-01-31 20:00:00,35.8,19.4,29.36,SSW,211,13.0,13.0,51,0.00,,,0.06,Wunderground v.1.15,2013-02-01 01:00:00,
2013-01-31 20:05:00,35.7,19.3,29.36,WSW,237,13.0,34.0,51,0.00,,,0.06,Wunderground v.1.15,2013-02-01 01:05:00,
2013-01-31 20:15:00,35.5,18.7,29.36,West,269,16.0,34.0,50,0.00,,,0.06,Wunderground v.1.15,2013-02-01 01:15:00,
2013-01-31 20:20:00,35.3,18.0,29.37,WSW,238,16.0,34.0,49,0.00,,,0.06,Wunderground v.1.15,2013-02-01 01:20:00,
2013-01-31 20:25:00,35.2,17.9,29.37,WSW,248,17.0,34.0,49,0.00,,,0.06,Wunderground v.1.15,2013-02-01 01:25:00,
2013-01-31 20:35:00,34.9,17.2,29.38,West,263,14.0,34.0,48,0.00,,,0.06,Wunderground v.1.15,2013-02-01 01:35:00,
2013-01-31 20:40:00,34.8,17.1,29.38,WSW,252,15.0,34.0,48,0.00,,,0.06,Wunderground v.1.15,2013-02-01 01:40:00,
2013-01-31 20:50:00,34.6,17.4,29.38,SW,223,16.0,16.0,49,0.00,,,0.06,Wunderground v.1.15,2013-02-01 01:50:00,
2013-01-31 20:55:00,34.5,17.3,29.39,WNW,288,14.0,34.0,49,0.00,,,0.06,Wunderground v.1.15,2013-02-01 01:55:00,
2013-01-31 21:00:00,34.4,17.2,29.39,West,271,13.0,13.0,49,0.00,,,0.06,Wunderground v.1.15,2013-02-01 02:00:00,
2013-01-31 21:05:00,34.3,17.1,29.39,WSW,256,12.0,15.0,49,0.00,,,0.06,Wunderground v.1.15,2013-02-01 02:05:00,
2013-01-31 21:10:00,34.3,16.6,29.40,WSW,249,13.0,13.0,48,0.00,,,0.06,Wunderground v.1.15,2013-02-01 02:10:00,
2013-01-31 21:15:00,34.1,17.4,29.40,WNW,284,13.0,34.0,50,0.00,,,0.06,Wunderground v.1.15,2013-02-01 02:15:00,
2013-01-31 21:25:00,34.0,17.3,29.40,SW,227,14.0,34.0,50,0.00,,,0.06,Wunderground v.1.15,2013-02-01 02:25:00,
2013-01-31 21:30:00,33.9,16.3,29.40,WSW,239,14.0,34.0,48,0.00,,,0.06,Wunderground v.1.15,2013-02-01 02:30:00,
2013-01-31 21:35:00,33.8,16.2,29.41,SW,235,14.0,34.0,48,0.00,,,0.06,Wunderground v.1.15,2013-02-01 02:35:00,
2013-01-31 21:40:00,33.7,16.1,29.41,WSW,243,14.0,34.0,48,0.00,,,0.06,Wunderground v.1.15,2013-02-01 02:40:00,
2013-01-31 21:45:00,33.6,15.5,29.41,SW,223,16.0,34.0,47,0.00,,,0.06,Wunderground v.1.15,2013-02-01 02:45:00,
2013-01-31 21:55:00,33.4,15.3,29.41,SW,230,15.0,34.0,47,0.00,,,0.06,Wunderground v.1.15,2013-02-01 02:55:00,
2013-01-31 22:00:00,33.4,15.3,29.41,SSW,200,15.0,15.0,47,0.00,,,0.06,Wunderground v.1.15,2013-02-01 03:00:00,
2013-01-31 22:05:00,33.3,15.2,29.42,WSW,245,16.0,16.0,47,0.00,,,0.06,Wunderground v.1.15,2013-02-01 03:05:00,
2013-01-31 22:10:00,33.3,15.2,29.42,West,260,15.0,15.0,47,0.00,,,0.06,Wunderground v.1.15,2013-02-01 03:10:00,
2013-01-31 22:15:00,33.2,15.6,29.42,SW,223,13.0,34.0,48,0.00,,,0.06,Wunderground v.1.15,2013-02-01 03:15:00,
2013-01-31 22:20:00,33.0,15.4,29.42,SW,229,12.0,12.0,48,0.00,,,0.06,Wunderground v.1.15,2013-02-01 03:20:00,
2013-01-31 22:25:00,33.0,15.4,29.42,WSW,246,12.0,34.0,48,0.00,,,0.06,Wunderground v.1.15,2013-02-01 03:25:00,
2013-01-31 22:30:00,33.0,15.4,29.42,WSW,257,13.0,34.0,48,0.00,,,0.06,Wunderground v.1.15,2013-02-01 03:30:00,
2013-01-31 22:35:00,32.9,15.3,29.43,WSW,237,13.0,34.0,48,0.00,,,0.06,Wunderground v.1.15,2013-02-01 03:35:00,
2013-01-31 22:40:00,32.8,15.7,29.43,SW,233,13.0,13.0,49,0.00,,,0.06,Wunderground v.1.15,2013-02-01 03:40:00,
2013-01-31 22:45:00,32.7,15.6,29.43,WSW,242,11.0,34.0,49,0.00,,,0.06,Wunderground v.1.15,2013-02-01 03:45:00,
2013-01-31 22:50:00,32.6,15.5,29.44,West,260,10.0,10.0,49,0.00,,,0.06,Wunderground v.1.15,2013-02-01 03:50:00,
2013-01-31 23:00:00,32.6,15.5,29.44,SW,227,15.0,34.0,49,0.00,,,0.06,Wunderground v.1.15,2013-02-01 04:00:00,
2013-01-31 23:05:00,32.5,15.9,29.44,WSW,252,13.0,34.0,50,0.00,,,0.06,Wunderground v.1.15,2013-02-01 04:05:00,
2013-01-31 23:10:00,32.5,15.9,29.45,WSW,255,13.0,13.0,50,0.00,,,0.06,Wunderground v.1.15,2013-02-01 04:10:00,
2013-01-31 23:15:00,32.4,15.8,29.46,SW,224,12.0,14.0,50,0.00,,,0.06,Wunderground v.1.15,2013-02-01 04:15:00,
2013-01-31 23:20:00,32.4,16.3,29.46,WSW,238,12.0,12.0,51,0.00,,,0.06,Wunderground v.1.15,2013-02-01 04:20:00,
2013-01-31 23:30:00,32.4,17.2,29.46,WSW,244,11.0,11.0,53,0.00,,,0.06,Wunderground v.1.15,2013-02-01 04:30:00,
2013-01-31 23:35:00,32.2,17.4,29.46,WSW,248,11.0,15.0,54,0.00,,,0.06,Wunderground v.1.15,2013-02-01 04:35:00,
2013-01-31 23:40:00,32.0,17.6,29.46,SSW,211,12.0,34.0,55,0.00,,,0.06,Wunderground v.1.15,2013-02-01 04:40:00,
2013-01-31 23:45:00,31.7,17.8,29.47,SW,217,13.0,34.0,56,0.00,,,0.06,Wunderground v.1.15,2013-02-01 04:45:00,
2013-01-31 23:50:00,31.6,17.7,29.47,West,263,14.0,34.0,56,0.00,,,0.06,Wunderground v.1.15,2013-02-01 04:50:00,
2013-01-31 23:55:00,31.5,18.4,29.47,SW,236,12.0,34.0,58,0.00,,,0.06,Wunderground v.1.15,2013-02-01 04:55:00,